Flag for Russia Weather past 2 weeks in Kaliningrad, Russia

Now
75 °F

Mostly cloudy.


Feels Like: 77 °F
Forecast: 60 / 77 °F
Wind: 8 mph from Northwest

Location: Kaliningrad/Khrabrovo Airport

Current Time: Jul 31, 2014 at 1:23:47 PM

Latest Report: Jul 31, 2014 at 12:30 PM


Visibility: N/A

Pressure: 29.80 "Hg

Humidity: 65%

Dew point: 63 °F

Location of KaliningradLocation

Historic Weather in Kaliningrad — Graph

°F

Kaliningrad temperature yesterday

Maximum temperature yesterday: 90 °F (at 3:30 PM)
Minimum temperature yesterday: 64 °F (at 5:00 AM)
Average temperature yesterday: 78 °F

Past Weeks' High & Low Weather Summary

 TemperatureHumidityPressure
High93 °F (Jul 29, 3:30 PM)94% (Jul 18, 3:30 AM)30.21 "Hg (Jul 18, 3:30 AM)
Low50 °F (Jul 18, 5:30 AM)21% (Jul 29, 4:00 PM)29.71 "Hg (Jul 30, 5:30 PM)
Average71 °F63%30.02 "Hg
* Reported Jul 16 11:00 AM — Jul 31 11:30 AM, Kaliningrad, Weather by CustomWeather, © 2014

Note: Actual official high and low records may vary slightly from our data, if they occured in-between our weather recording intervals... More about our weather records

Advertising

Kaliningrad weather history for previous 24 hours

 ConditionsComfort  
Time TempWeatherWind HumidityBarometerVisibility
11:30 AM
Jul 31
73 °FPartly sunny.8 mph74%29.77 "HgN/A
11:00 AM73 °FMostly cloudy.10 mph69%29.77 "HgN/A
10:30 AM73 °FPartly sunny.8 mph74%29.77 "HgN/A
10:00 AM75 °FBroken clouds.10 mph69%29.77 "HgN/A
9:30 AM75 °FBroken clouds.10 mph74%29.74 "HgN/A
9:00 AM73 °FPartly sunny.10 mph78%29.74 "HgN/A
8:30 AM73 °FBroken clouds.10 mph83%29.74 "HgN/A
8:00 AM72 °FOvercast.10 mph83%29.71 "HgN/A
7:30 AM70 °FOvercast.6 mph83%29.71 "HgN/A
7:00 AM70 °FOvercast.8 mph83%29.71 "HgN/A
6:30 AM70 °FPartly cloudy.6 mph78%29.71 "HgN/A
6:00 AM68 °FPassing clouds.6 mph78%29.71 "HgN/A
5:30 AM66 °FPassing clouds.6 mph83%29.71 "HgN/A
5:00 AM66 °FPassing clouds.6 mph83%29.71 "HgN/A
4:30 AM68 °FPassing clouds.6 mph78%29.71 "HgN/A
4:00 AM68 °FPassing clouds.6 mph78%29.71 "HgN/A
3:30 AM68 °FPassing clouds.8 mph78%29.71 "HgN/A
3:00 AM68 °FPassing clouds.8 mph73%29.71 "HgN/A
2:00 AM70 °FPassing clouds.6 mph69%29.71 "HgN/A
1:00 AM72 °FPassing clouds.6 mph65%29.71 "HgN/A
12:00 AM70 °FPassing clouds.6 mph69%29.71 "HgN/A
11:30 PM
Jul 30
72 °FPassing clouds.3 mph65%29.71 "HgN/A
11:00 PM73 °FPassing clouds.3 mph61%29.71 "HgN/A
10:30 PM73 °FScattered clouds.3 mph61%29.71 "HgN/A
10:00 PM75 °FScattered clouds.3 mph57%29.74 "HgN/A
9:30 PM79 °FPassing clouds.3 mph51%29.71 "HgN/A
8:30 PM82 °FSunny.6 mph42%29.71 "Hg10 mi
8:00 PM84 °FSunny.8 mph37%29.71 "Hg10 mi
7:30 PM86 °FPassing clouds.13 mph33%29.71 "HgN/A
7:00 PM86 °FSunny.15 mph31%29.71 "Hg10 mi
6:00 PM86 °FPartly sunny.15 mph33%29.71 "HgN/A
5:30 PM88 °FPartly sunny.13 mph31%29.71 "HgN/A
5:00 PM88 °FScattered clouds.10 mph31%29.74 "HgN/A
4:30 PM90 °FScattered clouds.8 mph29%29.74 "HgN/A
4:00 PM86 °FScattered clouds.10 mph35%29.74 "HgN/A
3:30 PM90 °FScattered clouds.10 mph29%29.77 "HgN/A
3:00 PM88 °FScattered clouds.13 mph31%29.77 "HgN/A
2:30 PM88 °FPassing clouds.10 mph33%29.77 "HgN/A
2:00 PM88 °FPassing clouds.13 mph31%29.77 "HgN/A
1:30 PM88 °FPassing clouds.15 mph31%29.77 "HgN/A
1:00 PM86 °FSunny.15 mph31%29.77 "Hg10 mi
Weather by CustomWeather, © 2014

See weather overviewHow to use our weather pages